Erie, PA

2:52 PM EDT on August 18, 2017 (GMT -0400)
Erie International

Weather History for KERI - January, 2014

Change the Weather History Date:

Friday, January 17, 2014

  Actual Average Record
Temperature  
Mean Temperature 32 °F 27 °F  
Max Temperature 39 °F 34 °F 58 °F (1952)
Min Temperature 24 °F 21 °F -15 °F (1982)
Degree Days  
Heating Degree Days 33 38  
Month to date heating degree days 656 638  
Since 1 July heating degree days 2898 2806  
Cooling Degree Days 0 0  
Month to date cooling degree days 0 0  
Year to date cooling degree days 0 0  
Moisture  
Dew Point 24 °F    
Average Humidity 70    
Maximum Humidity 85    
Minimum Humidity 54    
Precipitation  
Precipitation 0.04 in 0.10 in 1.12 in (1932)
Month to date precipitation 2.08 1.74  
Year to date precipitation 2.08 1.74  
Snow  
Snow 0.70 in 1.00 in - ()
Month to date snowfall 18.5 17.3  
Since 1 July snowfall 82.1 53.5  
Snow Depth 1.00 in    
Sea Level Pressure  
Sea Level Pressure 29.80 in    
Wind  
Wind Speed 11 mph (SSW)    
Max Wind Speed 21 mph    
Max Gust Speed 32 mph    
Visibility 7 miles    
Events Snow    
T = Trace of Precipitation, MM = Missing Value Source: NWS Daily Summary

Daily Weather History Graph

Daily Weather History Graph

Search for Another Location

Airport or City:

Trip Planner

Search our weather history database for the weather conditions in past years. The results will help you decide how hot, cold, wet, or windy it might be!

Date:

Astronomy

Jan. 17, 2014 Rise Set
Actual Time 7:45 AM EST 5:16 PM EST
Civil Twilight 7:14 AM EST 5:47 PM EST
Nautical Twilight 6:40 AM EST 6:21 PM EST
Astronomical Twilight 6:06 AM EST 6:55 PM EST
Moon 7:04 PM EST (1/17) 8:10 AM EST (1/17)
Length of Visible Light 10h 32m
Length of Day
9h 31m
Full, 98% of the Moon is Illuminated
Jan 17
Full
Jan 24
Last Quarter
Jan 30
New
Feb 6
First Quarter
Feb 14
Full

Hourly Weather History & Observations

Time (EST) Temp. Windchill Dew Point Humidity Pressure Visibility Wind Dir Wind Speed Gust Speed Precip Events Conditions
12:47 AM 28.4 °F 19.1 °F 23.0 °F 80% 29.74 in 2.5 mi South 10.4 mph - 0.00 in Snow Light Snow
12:51 AM 28.9 °F 18.2 °F 23.0 °F 78% 29.76 in 3.0 mi South 13.8 mph - 0.00 in Snow Light Snow
1:41 AM 28.4 °F 18.0 °F 23.0 °F 80% 29.73 in 2.5 mi South 12.7 mph - 0.00 in Snow Light Snow
1:51 AM 28.9 °F 19.2 °F 23.0 °F 78% 29.75 in 5.0 mi South 11.5 mph - 0.00 in Snow Light Snow
2:51 AM 28.9 °F 17.7 °F 23.0 °F 78% 29.75 in 10.0 mi South 15.0 mph 21.9 mph 0.00 in   Overcast
3:34 AM 30.2 °F 18.9 °F 23.0 °F 75% 29.73 in 10.0 mi South 16.1 mph - N/A   Overcast
3:51 AM 30.9 °F 21.2 °F 23.0 °F 72% 29.75 in 10.0 mi South 12.7 mph - N/A   Overcast
4:51 AM 30.9 °F 20.7 °F 24.1 °F 76% 29.75 in 10.0 mi South 13.8 mph 23.0 mph 0.01 in   Overcast
5:21 AM 32.0 °F 22.5 °F 24.8 °F 75% 29.72 in 10.0 mi South 12.7 mph - N/A   Overcast
5:51 AM 30.9 °F 20.7 °F 23.0 °F 72% 29.75 in 10.0 mi South 13.8 mph 23.0 mph N/A   Scattered Clouds
6:51 AM 30.9 °F 21.2 °F 21.9 °F 69% 29.77 in 10.0 mi SSW 12.7 mph 23.0 mph N/A   Clear
8:51 AM 30.9 °F 20.2 °F 19.9 °F 64% 29.81 in 10.0 mi SSW 15.0 mph - N/A   Clear
9:51 AM 33.1 °F 22.6 °F 21.0 °F 61% 29.84 in 10.0 mi SSW 16.1 mph - N/A   Clear
10:51 AM 34.0 °F 24.6 °F 21.9 °F 61% 29.85 in 10.0 mi SW 13.8 mph 19.6 mph N/A   Clear
11:51 AM 35.1 °F 26.9 °F 21.0 °F 57% 29.83 in 10.0 mi SSW 11.5 mph - N/A   Clear
12:51 PM 37.0 °F 29.8 °F 23.0 °F 57% 29.81 in 10.0 mi SSW 10.4 mph 16.1 mph N/A   Partly Cloudy
1:51 PM 37.0 °F 31.0 °F 23.0 °F 57% 29.80 in 10.0 mi NW 8.1 mph - N/A   Mostly Cloudy
2:51 PM 34.0 °F 31.0 °F 21.0 °F 59% 29.80 in 10.0 mi North 3.5 mph - N/A   Overcast
3:51 PM 35.1 °F 30.1 °F 24.1 °F 64% 29.80 in 10.0 mi East 5.8 mph - N/A   Overcast
4:51 PM 34.0 °F 29.8 °F 24.1 °F 67% 29.80 in 10.0 mi ENE 4.6 mph - N/A   Partly Cloudy
5:51 PM 36.0 °F 32.1 °F 24.1 °F 62% 29.80 in 10.0 mi South 4.6 mph - N/A   Overcast
6:51 PM 34.0 °F 31.0 °F 24.1 °F 67% 29.81 in 10.0 mi SSE 3.5 mph - N/A   Overcast
7:51 PM 35.1 °F 27.9 °F 27.0 °F 72% 29.81 in 10.0 mi SSE 9.2 mph - N/A   Overcast
8:18 PM 33.8 °F 25.8 °F 28.4 °F 81% 29.80 in 1.8 mi SSW 10.4 mph - 0.00 in Snow Light Snow
8:24 PM 33.8 °F 27.0 °F 28.4 °F 81% 29.80 in 0.8 mi SW 8.1 mph - 0.00 in Snow Light Snow
8:31 PM 33.8 °F 28.6 °F 30.2 °F 87% 29.79 in 0.8 mi SW 5.8 mph - 0.01 in Snow Light Snow
8:35 PM 33.8 °F 28.6 °F 30.2 °F 87% 29.80 in 1.2 mi SSW 5.8 mph - 0.01 in Snow Light Snow
8:38 PM 33.8 °F 29.6 °F 30.2 °F 87% 29.80 in 2.0 mi SSW 4.6 mph - 0.01 in Snow Light Snow
8:47 PM 33.8 °F 27.0 °F 30.2 °F 87% 29.80 in 6.0 mi SSW 8.1 mph - 0.01 in Snow Light Snow
8:51 PM 33.1 °F 26.1 °F 30.0 °F 89% 29.83 in 7.0 mi SSW 8.1 mph - 0.01 in Snow Light Snow
9:12 PM 30.2 °F 18.9 °F 26.6 °F 86% 29.82 in 2.5 mi West 16.1 mph 25.3 mph 0.01 in Snow Light Snow
9:22 PM 30.2 °F 18.5 °F 26.6 °F 86% 29.82 in 1.5 mi West 17.3 mph 23.0 mph 0.01 in Snow Light Snow
9:46 PM 28.4 °F 16.2 °F 24.8 °F 86% 29.84 in 2.0 mi WSW 17.3 mph 32.2 mph 0.01 in Snow Light Snow
9:51 PM 28.0 °F 16.1 °F 24.1 °F 85% 29.87 in 2.5 mi WSW 16.1 mph 32.2 mph 0.01 in Snow Light Snow
9:59 PM 28.4 °F 17.0 °F 24.8 °F 86% 29.84 in 5.0 mi WSW 15.0 mph 26.5 mph 0.00 in Snow Light Snow
10:51 PM 26.1 °F 13.1 °F 21.0 °F 81% 29.90 in 8.0 mi WSW 17.3 mph 28.8 mph 0.00 in   Overcast
11:51 PM 24.1 °F 11.0 °F 19.0 °F 81% 29.89 in 4.0 mi WSW 16.1 mph 24.2 mph 0.00 in Snow Light Snow